This demonstration page uses our WeatherBlox Daily Observations layout. Learn more.

40.92945, -100.16068

Hourly Observations for April 28, 2017

Temp ( °F °C ) Dew Point ( °F °C ) Humidity (%) Winds ( mph kmh ) Pressure ( in mb ) Visibility ( mi km ) Precip ( " mm )
12:15 am 00:15 Cloudy 45 7 41 5.2 88 88 ESE 9 15 29.71 1006 10 16.0934 0 0
12:35 am 00:35 Cloudy with Light Drizzle 45 7 42 5.3 89 89 ESE 12 19 29.71 1006 10 16.0934 0 0
12:55 am 00:55 Cloudy with Light Rain 45 7 42 5.3 89 89 E 10 17 29.71 1006 10 16.0934 0.01 0.254
1:15 am 01:15 Cloudy with Light Rain 45 7 42 5.5 90 90 E 8 13 29.71 1006 10 16.0934 0.02 0.508
1:35 am 01:35 Cloudy with Drizzle 45 7 42 5.5 90 90 E 9 15 29.71 1006 10 16.0934 0.03 0.762
1:55 am 01:55 Cloudy with Light Rain 45 7 42 5.5 90 90 ESE 10 17 29.71 1006 10 16.0934 0.04 1.016
2:15 am 02:15 Cloudy with Rain 45 7 42 5.5 90 90 ESE 12 19 29.68 1005 7 11.26538 0.03 0.762
2:35 am 02:35 Cloudy with Rain 44 6.9 42 5.5 91 91 ESE 12 19 29.68 1005 7 11.26538 0.07 1.778
2:55 am 02:55 Cloudy with Rain 44 6.8 42 5.6 92 92 ESE 9 15 29.68 1005 7 11.26538 0.12 3.048
3:15 am 03:15 Cloudy with Rain 44 6.8 42 5.6 92 92 ESE 9 15 29.68 1005 7 11.26538 0.04 1.016
3:35 am 03:35 Cloudy with Light Rain 44 6.6 42 5.5 93 93 ESE 10 17 29.71 1006 3 4.82802 0.13 3.302
3:55 am 03:55 Cloudy with Light Rain 44 6.6 42 5.5 93 93 E 9 15 29.71 1006 3 4.82802 0.21 5.334
4:15 am 04:15 Cloudy with Rain 44 6.5 42 5.5 93 93 E 10 17 29.71 1006 7 11.26538 0.06 1.524
4:35 am 04:35 Cloudy with Rain 44 6.5 41 5.2 92 92 E 14 22 29.71 1006 7 11.26538 0.11 2.794
4:55 am 04:55 Cloudy with Rain 43 6.2 40 4.5 89 89 ESE 10 17 29.71 1006 7 11.26538 0.16 4.064
5:15 am 05:15 Cloudy with Rain 43 6.2 40 4.7 90 90 E 15 24 29.71 1006 7 11.26538 0.06 1.524
5:35 am 05:35 Cloudy with Rain 43 6 40 4.4 90 90 E 10 17 29.71 1006 7 11.26538 0.11 2.794
5:55 am 05:55 Cloudy with Rain 43 6 40 4.5 90 90 ENE 15 24 29.68 1005 7 11.26538 0.15 3.81
6:15 am 06:15 Cloudy with Light Rain 42 5.7 39 4.1 90 90 ENE 15 24 29.71 1006 10 16.0934 0.01 0.254
6:35 am 06:35 Cloudy with Light Rain 42 5.7 40 4.2 90 90 ENE 13 20 29.71 1006 10 16.0934 0.02 0.508
6:55 am 06:55 Cloudy with Light Rain 42 5.6 40 4.2 91 91 ENE 10 17 29.71 1006 7 11.26538 0.04 1.016
7:15 am 07:15 Cloudy with Light Rain 42 5.7 40 4.5 92 92 ENE 12 19 29.71 1006 3 4.82802 0.05 1.27
7:35 am 07:35 Cloudy with Light Rain 42 5.6 40 4.5 93 93 NE 17 28 29.71 1006 4 6.43736 0.09 2.286
7:55 am 07:55 Cloudy with Light Rain 42 5.4 40 4.3 93 93 NE 18 30 29.74 1007 4 6.43736 0.12 3.048
8:15 am 08:15 Cloudy with Light Rain 41 5.1 39 4 93 93 NE 16 26 29.74 1007 7 11.26538 0.02 0.508
8:35 am 08:35 Cloudy with Light Rain 41 5 39 3.8 92 92 NE 16 26 29.74 1007 5 8.0467 0.04 1.016
8:55 am 08:55 Cloudy with Light Rain 40 4.7 38 3.5 92 92 ENE 20 31 29.74 1007 5 8.0467 0.06 1.524
9:15 am 09:15 Cloudy with Drizzle 40 4.6 38 3.3 91 91 NE 17 28 29.74 1007 5 8.0467 0.02 0.508
9:35 am 09:35 Cloudy with Light Rain 40 4.3 37 3 91 91 NE 23 37 29.74 1007 5 8.0467 0.03 0.762
9:55 am 09:55 Cloudy with Light Rain 39 4 37 2.6 91 91 NE 20 31 29.74 1007 5 8.0467 0.04 1.016
10:15 am 10:15 Cloudy with Light Rain 38 3.6 36 2.2 91 91 NE 18 30 29.8 1009 5 8.0467 0.02 0.508
10:35 am 10:35 Cloudy with Light Rain 37 2.7 34 1.3 91 91 NE 16 26 29.8 1009 5 8.0467 0.04 1.016
10:55 am 10:55 Cloudy with Light Rain 36 2.2 34 1 92 92 NE 18 30 29.8 1009 10 16.0934 0.05 1.27
11:15 am 11:15 Cloudy with Light Rain 36 2 34 1 93 93 NE 17 28 29.83 1010 7 11.26538 0.01 0.254
11:35 am 11:35 Cloudy with Light Snow 35 1.6 33 0.5 93 93 NE 17 28 29.83 1010 2 3.21868 0.03 0.762
11:55 am 11:55 Cloudy with Light Snow 34 1.3 33 0.3 93 93 NE 15 24 29.85 1011 0.75 1.207005 0.06 1.524
12:15 pm 12:15 Cloudy with Light Snow 34 1.3 33 0.3 93 93 NE 17 28 29.85 1011 1.75 2.816345 0.02 0.508
12:35 pm 12:35 Cloudy with Light Snow 34 1.2 33 0.3 94 94 NE 18 30 29.88 1012 1.75 2.816345 0.05 1.27
12:55 pm 12:55 Windy with Snow Likely 35 1.5 33 0.5 93 93 NE 20 31 29.88 1012 4 6.43736 0.08 2.032
1:15 pm 13:15 Windy with Snow Likely 35 1.9 33 0.8 93 93 NE 21 33 29.85 1011 7 11.26538 0.01 0.254
1:35 pm 13:35 Cloudy with Light Rain 37 2.5 34 1.2 91 91 NE 23 37 29.88 1012 10 16.0934 0.01 0.254
1:55 pm 13:55 Cloudy with Light Rain 36 2.4 34 1.1 91 91 NE 23 37 29.88 1012 7 11.26538 0.02 0.508
2:15 pm 14:15 Cloudy with Light Rain 37 2.5 34 1.1 91 91 NE 22 35 29.88 1012 10 16.0934 0 0
2:35 pm 14:35 Cloudy with Light Drizzle 37 2.6 34 1.1 90 90 NNE 20 31 29.88 1012 10 16.0934 0 0
2:55 pm 14:55 Cloudy 37 2.6 34 1 89 89 NE 21 33 29.91 1013 10 16.0934 0 0
3:15 pm 15:15 Cloudy 37 2.8 34 1 88 88 NE 24 39 29.91 1013 10 16.0934 0 0
3:35 pm 15:35 Cloudy 37 2.9 34 1 87 87 NE 18 30 29.94 1014 10 16.0934 0 0
3:55 pm 15:55 Cloudy 38 3.1 34 1.2 88 88 NNE 22 35 29.94 1014 10 16.0934 0 0
4:15 pm 16:15 Cloudy 37 3 33 0.8 86 86 NE 22 35 29.94 1014 10 16.0934 0 0
4:35 pm 16:35 Cloudy 38 3.4 34 1.1 85 85 NE 24 39 29.94 1014 10 16.0934 0 0
4:55 pm 16:55 Cloudy 39 3.7 35 1.5 86 86 NE 21 33 29.94 1014 10 16.0934 0 0
5:15 pm 17:15 Cloudy 38 3.6 34 1.3 85 85 NE 17 28 29.97 1015 10 16.0934 0 0
5:35 pm 17:35 Cloudy 39 3.8 35 1.5 85 85 NE 18 30 29.97 1015 10 16.0934 0 0
5:55 pm 17:55 Cloudy 39 3.8 35 1.5 85 85 NE 16 26 29.97 1015 10 16.0934 0 0
6:15 pm 18:15 Cloudy 39 3.8 34 1.3 84 84 NE 17 28 30 1016 10 16.0934 0 0
6:35 pm 18:35 Cloudy 38 3.6 34 1.1 84 84 NE 15 24 30.03 1017 10 16.0934 0 0
6:55 pm 18:55 Cloudy 38 3.5 34 1.2 85 85 NE 15 24 30.03 1017 10 16.0934 0 0
7:15 pm 19:15 Cloudy 38 3.4 34 1 84 84 NE 16 26 30 1016 10 16.0934 0 0
7:35 pm 19:35 Cloudy 38 3.4 34 0.9 84 84 NNE 15 24 30.06 1018 10 16.0934 0 0
7:55 pm 19:55 Cloudy 38 3.2 34 1 86 86 NNE 17 28 30.06 1018 10 16.0934 0 0
8:15 pm 20:15 Cloudy 38 3.2 33 0.8 84 84 NNE 15 24 30.06 1018 10 16.0934 0 0
8:35 pm 20:35 Cloudy 37 3 33 0.7 85 85 NNE 12 19 30.09 1019 10 16.0934 0 0
8:55 pm 20:55 Cloudy 37 3 33 0.8 86 86 NNE 13 20 30.09 1019 10 16.0934 0 0
9:15 pm 21:15 Cloudy 37 3 33 0.8 86 86 NNE 8 13 30.12 1020 10 16.0934 0 0
9:35 pm 21:35 Cloudy 38 3.1 34 0.9 86 86 NNE 10 17 30.12 1020 10 16.0934 0 0
9:55 pm 21:55 Cloudy 37 3 34 0.9 86 86 NNE 13 20 30.12 1020 10 16.0934 0 0
10:15 pm 22:15 Cloudy 38 3.2 33 0.8 84 84 NNE 12 19 30.15 1021 10 16.0934 0 0
10:35 pm 22:35 Cloudy 38 3.5 33 0.6 82 82 NNE 12 19 30.15 1021 10 16.0934 0 0
10:55 pm 22:55 Cloudy 38 3.5 33 0.5 81 81 NNE 8 13 30.15 1021 10 16.0934 0 0
11:15 pm 23:15 Cloudy 38 3.5 33 0.8 83 83 N 8 13 30.12 1020 10 16.0934 0 0
11:35 pm 23:35 Cloudy 38 3.5 33 0.5 81 81 N 9 15 30.15 1021 10 16.0934 0 0
11:55 pm 23:55 Cloudy 38 3.6 33 0.5 80 80 NNE 9 15 30.15 1021 10 16.0934 0 0

Powered by AerisWeather